Miscellaneous Local Product
Issued by NWS Hastings, NE

Home | Current Version | Previous Version | Text Only | Print | Product List | Glossary Off
Versions: 1 2 3 4 5 6 7 8 9 10 11 12 13 14 15 16 17 18 19 20 21 22 23 24 25 26 27 28 29 30 31 32 33 34 35 36 37 38 39 40 41 42 43 44 45 46 47 48 49 50

326
AXUS43 KGID 241102
MISGRI

GID CWA HOURLY WEATHER ROUNDUP
NATIONAL WEATHER SERVICE HASTINGS NE
600 AM CDT SAT JUN 24 2017

NOTE: "FAIR" INDICATES FEW OR NO CLOUDS BELOW 12,000 FEET WITH NO
SIGNIFICANT WEATHER AND/OR OBSTRUCTIONS TO VISIBILITY.

...SOUTH CENTRAL NEBRASKA...

CITY           SKY/WX    TMP DP  RH WIND       PRES   REMARKS
GRAND ISLAND   CLEAR     47  43  86 W6        30.22R
HASTINGS       CLOUDY    51  42  71 W3        30.23R
KEARNEY        CLOUDY    52  39  62 NW6       30.23R
ORD            PTCLDY    43  39  86 NW3       30.20S
YORK           CLEAR     48  41  76 CALM      30.20R
AURORA         CLEAR     45  42  88 W6        30.21R
LEXINGTON      CLOUDY    51  46  84 NW5       30.24S
HOLDREGE       CLOUDY    50  44  79 CALM      30.23R
HEBRON         CLEAR     51  46  82 CALM      30.20S

...NEBRASKA PANHANDLE...

CITY           SKY/WX    TMP DP  RH WIND       PRES   REMARKS
CHADRON        CLOUDY    43  37  79 SW5       30.26S
ALLIANCE       CLOUDY    48  43  82 W5        30.27S
SCOTTSBLUFF    CLOUDY    53  42  66 SW3       30.29R
SIDNEY         CLOUDY    54  39  57 E3        30.30S

...WESTERN AND NORTH CENTRAL NEBRASKA...

CITY           SKY/WX    TMP DP  RH WIND       PRES   REMARKS
VALENTINE      CLEAR     41  31  67 SW7       30.22R
AINSWORTH      CLEAR     43  38  83 W5        30.22R
ONEILL         CLEAR     44  37  76 W6        30.19S
BROKEN BOW     CLOUDY    48  43  82 S3        30.22S
IMPERIAL       CLOUDY    54  47  77 CALM      30.26S
NORTH PLATTE   CLOUDY    51  41  68 NW5       30.25S
MCCOOK         CLEAR     47  44  90 SW5       30.24S

...EASTERN NEBRASKA...

CITY           SKY/WX    TMP DP  RH WIND       PRES   REMARKS
NORFOLK        CLEAR     48  39  71 W8        30.17S
SO SIOUX CITY  CLEAR     47  41  80 CALM      30.14S
TEKAMAH        CLEAR     50  41  71 W5        30.15R
COLUMBUS       CLEAR     46  41  82 MISG      30.20R
ALBION         CLEAR     41  37  87 NW3       30.20S
OMAHA EPPLEY   CLEAR     54  46  74 CALM      30.15R
OFFUTT AFB     CLEAR     51  45  80 NW8       30.15R
MILLARD        CLEAR     52  48  86 CALM      30.15S
LINCOLN        CLEAR     50  44  80 CALM      30.19R
NEBRASKA CITY  CLEAR     54  46  73 NW7       30.16R
BEATRICE       CLEAR     49  47  93 W3        30.18R
FALLS CITY     CLEAR     53  48  83 W6        30.14S

...NORTHERN KANSAS...

CITY           SKY/WX    TMP DP  RH WIND       PRES   REMARKS
GOODLAND       CLEAR     50  46  86 S6        30.25S
HILL CITY      CLEAR     50  47  89 N5        30.22R
NORTON         SUNNY     48  41  76 N8        30.23R
PHILLIPSBURG   CLEAR     48  46  93 W7        30.22S
SMITH CENTER   MOCLDY    54  45  71 N9        30.21S
HAYS           PTCLDY    59  51  75 NE5       30.20R
RUSSELL        PTCLDY    56  49  77 N6        30.18R
CONCORDIA      CLEAR     54  48  80 CALM      30.19R
SALINA         CLEAR     57  51  80 NW6       30.18R
TOPEKA         CLEAR     56  55  97 NW3       30.15R



USA.gov is the U.S. government's official web portal to all federal, state and local government web resources and services.